Flag for U.S.A. Weather past 2 weeks in Honolulu, Hawaii, U.S.A.

Now
81 °F

Scattered clouds.


Feels Like: 82 °F
Forecast: 72 / 84 °F
Wind: 14 mph from Northeast

Location: Honolulu International Airport

Current Time: Jul 30, 2014 at 7:21:55 PM

Latest Report: Jul 30, 2014 at 6:53 PM


Visibility: 10 mi

Pressure: 29.99 "Hg

Humidity: 54%

Dew point: 63 °F

Location of HonoluluLocation

Historic Weather in Honolulu — Graph

°F

Honolulu temperature yesterday

Maximum temperature yesterday: 88 °F (at 11:53 AM)
Minimum temperature yesterday: 77 °F (at 5:53 AM)
Average temperature yesterday: 82 °F

Past Weeks' High & Low Weather Summary

 TemperatureHumidityPressure
High90 °F (Jul 26, 12:53 PM)97% (Jul 19, 11:53 PM)30.08 "Hg (Jul 19, 11:53 PM)
Low73 °F (Jul 20, 3:53 AM)42% (Jul 18, 1:53 PM)29.90 "Hg (Jul 20, 2:53 AM)
Average81 °F63%29.99 "Hg
* Reported Jul 15 5:53 PM — Jul 30 5:53 PM, Honolulu, Weather by CustomWeather, © 2014

Note: Actual official high and low records may vary slightly from our data, if they occured in-between our weather recording intervals... More about our weather records

Advertising

Honolulu weather history for previous 24 hours

 ConditionsComfort  
Time TempWeatherWind HumidityBarometerVisibility
5:53 PM
Jul 30
83 °FScattered clouds.12 mph55%29.97 "Hg10 mi
4:53 PM85 °FScattered clouds.15 mph50%29.97 "Hg10 mi
3:53 PM86 °FScattered clouds.17 mph45%29.97 "Hg10 mi
2:53 PM87 °FScattered clouds.17 mph43%29.98 "Hg10 mi
1:53 PM87 °FScattered clouds.16 mph43%29.99 "Hg10 mi
12:53 PM86 °FScattered clouds.14 mph45%30.00 "Hg10 mi
11:53 AM87 °FScattered clouds.15 mph43%30.01 "Hg10 mi
10:53 AM86 °FScattered clouds.14 mph48%30.02 "Hg10 mi
9:53 AM84 °FScattered clouds.14 mph49%30.02 "Hg10 mi
8:53 AM82 °FScattered clouds.13 mph55%30.02 "Hg10 mi
7:53 AM81 °FScattered clouds.12 mph58%30.02 "Hg10 mi
6:53 AM78 °FPassing clouds.9 mph66%30.01 "Hg10 mi
5:53 AM77 °FPassing clouds.7 mph69%30.00 "Hg10 mi
4:53 AM77 °FPassing clouds.5 mph69%30.00 "Hg10 mi
3:53 AM77 °FPassing clouds.8 mph69%29.99 "Hg10 mi
2:53 AM77 °FPassing clouds.5 mph69%30.00 "Hg10 mi
1:53 AM77 °FPassing clouds.10 mph66%30.01 "Hg10 mi
12:53 AM78 °FPassing clouds.8 mph64%30.03 "Hg10 mi
11:53 PM
Jul 29
78 °FPassing clouds.12 mph60%30.03 "Hg10 mi
10:53 PM78 °FPassing clouds.9 mph64%30.03 "Hg10 mi
9:53 PM79 °FPassing clouds.15 mph60%30.04 "Hg10 mi
8:53 PM79 °FPassing clouds.14 mph62%30.02 "Hg10 mi
7:53 PM80 °FPassing clouds.12 mph60%30.01 "Hg10 mi
Weather by CustomWeather, © 2014

See weather overviewHow to use our weather pages